Location: Pniewo
(53.2202°N, 14.4841°E)
Time: 21:04:24
(UTC+00:00)

Daily predictions for brighter satellites

Satellite Brightness Start Highest point End
(mag) Time Altitude Azimuth Time Altitude Azimuth Time Altitude Azimuth
MetOp-A 4.4 18:36:56 10° S 18:42:18 74° WSW 18:47:41 10° NNW
RESURS DK-1 3.4 18:42:54 10° SSE 18:46:16 25° ESE 18:49:40 10° NE
Cosmos 1300 4.0 18:43:54 10° SSW 18:47:34 45° WNW 18:51:16 10° N
SL-16 R/B 3.7 18:45:35 10° NNW 18:50:19 26° NE 18:55:00 10° E
Cosmos 2058 3.1 18:47:18 10° N 18:51:29 59° ENE 18:55:36 10° SSE
Cosmos 1980 4.2 18:46:39 10° NNW 18:52:11 49° NE 18:57:41 10° SE
CZ-2C R/B 3.4 18:47:54 10° N 18:52:59 57° WNW 18:58:05 10° SW
Cosmos 1992 Rocket 4.1 18:49:43 10° NNW 18:54:57 81° WSW 19:00:10 10° SSE
DMSP B5D2-2 4.3 18:50:25 10° NNE 18:55:41 82° WNW 19:00:57 10° SSW
Cosmos 2360 Rocket 3.9 18:52:03 10° NW 18:57:04 33° WSW 19:02:02 10° SSW
ATLAS 3B R/B 2.9 18:51:12 10° NW 18:58:10 81° SW 19:05:27 10° SE
Cosmos 2058 Rocket 3.1 18:55:28 10° S 18:59:45 62° E 19:04:05 10° NNE
Cosmos 1689 Rocket 4.3 18:57:15 10° N 18:59:48 29° WNW 19:02:19 10° SW
COSMOS 2428 2.9 18:55:10 10° NW 19:00:56 78° WSW 19:06:40 10° SSE
Cosmos 1953 Rocket 4.3 18:56:42 10° NNW 19:01:01 57° W 19:05:15 10° S
COSMOS 2487 2.3 19:00:18 10° SSW 19:03:40 68° ESE 19:07:06 10° NNE
SME Rocket 3.5 19:00:17 10° NNE 19:04:00 64° WNW 19:08:22 10° SSW
Cosmos 1092 Rocket 4.2 18:58:05 10° NNW 19:04:24 81° W 19:10:36 10° S
USA 186 3.6 19:01:36 10° SSW 19:04:32 32° W 19:07:22 10° NNW
USA 215 3.3 18:58:32 10° ESE 19:05:07 85° SSW 19:11:42 10° WNW
Cosmos 2151 4.1 19:01:29 10° N 19:05:17 29° ENE 19:08:42 12° SE
Cosmos 1076 Rocket 3.8 19:04:46 10° N 19:09:03 50° ENE 19:13:15 10° SSE
Cosmos 1833 4.4 19:05:11 10° SW 19:10:49 79° WNW 19:16:33 10° NNE
NOSS 0 Rocket 4.0 19:06:43 10° NNW 19:12:58 85° NE 19:19:06 11° SE
ERS-2 3.6 19:09:48 10° N 19:13:17 42° WNW 19:16:44 10° SW
Cosmos 1818 4.1 19:08:46 10° S 19:13:43 37° ESE 19:18:43 10° NE
Cosmos 2219 Rocket 2.8 19:08:42 10° NW 19:14:16 56° WSW 19:19:48 10° S
FALCON 9 DEB 4.5 19:11:45 10° SSW 19:14:24 21° SE 19:16:30 13° E
Cosmos 1812 Rocket 4.5 19:11:08 10° SSE 19:14:59 30° E 19:18:52 10° NNE
Cosmos 909 Rocket 4.4 19:09:43 10° S 19:15:33 41° ESE 19:21:34 10° NE
Resurs 01 Rocket 1.6 19:13:14 10° SSE 19:17:40 74° ENE 19:22:09 10° NNW
Cosmos 44 3.8 19:13:17 10° SSW 19:18:07 43° ESE 19:23:12 10° NE
ERS-1 Rocket 4.1 19:14:41 12° ESE 19:18:27 28° ENE 19:22:41 10° N
Cosmos 1455 2.1 19:17:18 10° S 19:21:03 87° W 19:24:49 10° N
ATLAS 5 CENTAUR R/B 3.2 19:20:54 10° W 19:24:54 38° NNW 19:29:33 10° NE
Cosmos 1633 3.1 19:24:18 10° N 19:27:46 41° ENE 19:30:05 18° SE
Cosmos 1356 3.3 19:25:44 10° NNW 19:29:12 89° E 19:32:12 13° SSE
Resurs 1-3 4.2 19:24:55 10° S 19:29:14 57° W 19:33:35 10° NNW
CARTOSAT-1 4.4 19:27:16 16° ESE 19:30:09 35° ENE 19:34:06 10° N
Cosmos 1809 Rocket 4.5 19:25:00 10° N 19:31:06 70° ENE 19:36:59 11° SSE
IGS 5A 3.4 19:27:42 11° SSE 19:31:42 83° ENE 19:35:53 10° NNW
Lacrosse 5 rocket 2.0 19:28:23 10° W 19:32:28 56° NNW 19:36:48 10° ENE
Cosmos 405 Rocket 2.9 19:29:29 10° NNW 19:33:32 81° WSW 19:37:21 11° S
BREEZE-M DEB (TANK) 4.4 19:23:21 10° W 19:38:52 66° S 19:42:11 17° ESE
Cosmos 2237 Rocket 2.2 19:35:32 10° NNW 19:41:14 88° ENE 19:45:36 17° SSE
Cosmos 1140 Rocket 4.3 19:38:38 15° SSE 19:41:58 29° ESE 19:46:22 10° NE
IRIDIUM 106 4.3 19:36:51 10° S 19:42:02 69° E 19:47:14 10° N
SPOT 5 3.6 19:40:17 19° ESE 19:43:05 37° ENE 19:47:29 10° N
Cosmos 2279 Rocket 3.9 19:37:22 10° S 19:43:32 73° E 19:49:44 10° NNE
BREEZE-M DEB (TANK) 4.2 19:40:26 10° WSW 19:44:40 41° S 19:48:44 16° ESE
Spot 2 Rocket 3.6 19:41:31 18° SE 19:45:18 60° ENE 19:50:19 10° N
CZ-2C R/B 3.8 19:42:13 10° NNE 19:46:37 52° E 19:50:38 12° S
BREEZE-M DEB (TANK) 4.4 19:43:13 10° WSW 19:46:52 58° SSE 19:57:33 10° E
Meteor 2-14 Rocket 4.4 19:45:14 10° N 19:51:21 81° E 19:56:27 15° SSE
OBJECT-B 3.7 19:49:42 10° SW 19:51:40 15° W 19:53:39 10° NW
Terra 2.7 19:50:06 20° ESE 19:52:41 34° ENE 19:56:59 10° N
BREEZE-M DEB (TANK) 4.4 19:51:30 10° WSW 19:56:32 82° SSE 20:19:52 10° E
MetOp-B 4.3 19:52:09 13° S 19:56:59 75° WSW 20:02:23 10° NNW
NOSS 3-4 (A) 4.1 19:51:36 10° WSW 19:57:31 60° NNW 20:04:02 10° NE
NOSS 3-4 (C) 4.1 19:51:42 10° WSW 19:57:37 60° NNW 20:04:09 10° NE
Cosmos 2227 Rocket 2.9 19:57:04 19° SSE 20:00:13 33° ESE 20:05:13 10° NE
SPOT 1/Viking Rocket 3.6 19:58:13 17° SSE 20:02:19 84° WSW 20:07:36 10° NNW
Cosmos 389 Rocket 2.5 20:00:14 11° SSW 20:03:40 83° WNW 20:07:15 10° NNE
Cosmos 2251 Rocket 3.7 19:58:39 10° SSW 20:04:01 80° WNW 20:09:25 10° NNE
Cosmos 2333 Rocket 4.2 19:59:41 10° NW 20:04:05 23° WSW 20:08:28 10° SSW
Cosmos 2266 Rocket 4.0 19:58:39 10° N 20:05:06 79° E 20:09:47 19° SSE
Cosmos 1825 4.5 20:04:06 10° NW 20:07:04 22° W 20:10:01 10° SW
Cosmos 2297 Rocket 2.5 20:02:13 10° S 20:07:31 45° ESE 20:12:53 10° NE
BREEZE-M DEB (TANK) 3.2 20:06:39 10° WSW 20:08:17 22° SSW 20:08:17 22° SSW
SPOT 3 Rocket 4.4 20:03:58 10° S 20:08:59 47° W 20:14:00 10° NNW
Cosmos 2219 3.5 20:05:52 15° S 20:10:10 43° ESE 20:15:28 10° NE
Cosmos 1190 Rocket 4.3 20:07:40 21° SSE 20:10:47 43° ESE 20:15:42 10° NE
ATLAS 2AS CENTAUR R/B 3.3 20:03:23 10° WSW 20:11:19 73° NW 20:19:00 10° NE
ARIANE 5 R/B 2.6 20:09:19 25° SSE 20:11:56 88° WSW 20:16:21 10° NNW
Meteor 2-21 Rocket 4.4 20:05:52 10° N 20:11:58 88° E 20:16:19 20° S
Timation 2 Rocket 4.3 20:10:14 11° S 20:16:05 45° ESE 20:22:02 10° NE
H-2A R/B 4.4 20:13:05 10° NE 20:16:48 29° E 20:17:14 29° ESE
Cosmos 1763 Rocket 4.0 20:15:45 10° NNW 20:20:39 45° NE 20:22:57 27° ESE
Orbus 7S? 3.7 20:18:12 10° WSW 20:21:31 87° SSE 20:28:48 10° ENE
CZ-4C R/B 3.7 20:18:29 10° W 20:23:44 40° NNW 20:30:05 10° NE
RESURS DK-1 3.3 20:20:02 10° SW 20:24:03 50° NW 20:28:07 10° NNE
Genesis I 3.4 20:20:05 10° NW 20:24:04 66° SW 20:25:22 39° SSE
Meteor 2-16 Rocket 4.4 20:19:14 10° NNW 20:25:25 88° W 20:29:25 23° S
Cosmos 1862 4.3 20:22:08 10° N 20:25:41 31° ENE 20:26:25 29° E
USA 245 3.9 20:24:37 22° SSW 20:26:46 46° WSW 20:29:58 10° NNW
Cosmos 1408 Rocket 4.1 20:23:46 10° N 20:27:54 41° ENE 20:29:01 34° ESE
Cosmos-2242 2.9 20:25:49 26° S 20:28:13 82° E 20:32:33 10° NNE
JB-3 4.4 20:25:42 10° NNE 20:29:49 63° E 20:31:09 39° SSE
Cosmos 1655 Rocket 4.4 20:26:41 10° NNW 20:32:54 62° W 20:37:45 17° S
SL-16 R/B 2.2 20:29:30 10° NNW 20:35:15 86° ENE 20:37:53 34° SE
NOSS 3-1 (C) 4.1 20:28:55 10° NW 20:35:56 69° NE 20:41:19 24° ESE
Cosmos 540 Rocket 4.3 20:35:24 10° NNW 20:40:12 39° NE 20:42:15 27° E
BREEZE-M DEB (TANK) 4.5 20:35:34 10° W 20:40:59 73° S 21:04:27 10° E
Cosmos 2151 4.2 20:38:40 10° NNW 20:42:40 38° W 20:45:16 19° SSW
Cosmos 1743 Rocket 4.4 20:39:21 10° N 20:43:22 34° ENE 20:44:08 32° E
Meteor 2-3 Rocket 4.3 20:39:08 10° NNW 20:44:47 56° W 20:48:26 22° SSW
ATLAS 3B R/B 4.4 20:42:40 10° WNW 20:48:04 24° WSW 20:53:12 11° SSW
USA 215 4.0 20:45:38 25° S 20:48:40 38° SW 20:54:41 10° WNW
Cosmos 2344 3.8 20:42:02 10° WSW 20:49:27 75° NW 20:57:57 10° NE
FALCON 9 DEB 4.0 20:47:29 10° WSW 20:49:45 37° SW 20:49:45 37° SW
Meteor 1-27 4.2 20:47:48 25° S 20:51:21 86° E 20:57:13 10° NNE
Cosmos 2221 3.1 20:53:19 38° E 20:53:20 38° E 20:57:18 10° NNE
CZ-4B DEB 4.3 20:54:11 69° WSW 20:54:16 69° WSW 20:57:30 10° NNW
Resurs 01 Rocket 4.1 20:51:49 10° SW 20:54:42 17° W 20:57:37 10° NW
Cosmos 1553 Rocket 4.5 20:54:35 34° SE 20:56:14 41° E 21:01:53 10° NNE
Cosmos 44 Rocket 4.5 20:57:58 28° E 20:57:58 28° E 21:01:27 10° ENE
ERS-1 Rocket 3.4 20:54:39 30° SSW 20:56:59 56° W 21:01:57 10° NNW
Cosmos 1818 4.1 20:51:44 10° WSW 20:57:08 59° NW 21:02:35 10° NE
Okean 3 Rocket 4.0 20:53:15 10° NNW 20:57:45 61° W 20:59:21 37° SSW
Cosmos 407 Rocket 3.7 20:53:52 10° SW 20:58:59 70° WNW 21:04:12 10° NNE
Cosmos 44 4.3 20:54:15 10° WSW 20:59:22 52° NW 21:04:43 10° NE
Cosmos 1766 Rocket 4.0 20:57:52 10° NNW 21:02:07 54° W 21:03:29 37° SSW
Cosmos 1500 Rocket 3.9 20:58:40 10° N 21:03:04 52° ENE 21:03:43 47° ESE
Cosmos 1943 3.8 20:59:26 10° NNW 21:04:52 47° NE 21:07:11 30° ESE
Meteor 1-4 Rocket 2.5 21:10:11 77° WNW 21:10:11 77° WNW 21:13:44 10° N
ATLAS 5 CENTAUR R/B 4.0 21:06:49 10° WNW 21:10:44 26° N 21:15:14 10° ENE
Lacrosse 5 rocket 2.0 21:07:53 10° WNW 21:12:05 55° N 21:14:12 28° ENE
Meteor 2-15 4.3 21:09:37 37° S 21:12:11 80° E 21:18:16 10° NNE
ALOS 2 4.0 21:12:33 24° E 21:13:21 26° ENE 21:17:00 10° N
Cosmos 1954 Rocket 3.8 21:12:17 39° SSW 21:14:15 83° ESE 21:19:28 10° NNE
Cosmos 1869 3.9 21:18:40 41° SW 21:19:40 54° WNW 21:23:35 10° N
Meteor 2-2 Rocket 4.2 21:18:00 46° SSE 21:19:41 69° E 21:25:22 10° NNE
COSMOS 2455 2.9 21:18:15 43° S 21:19:55 58° ESE 21:25:50 10° NE
SPOT 5 4.0 21:19:30 26° SW 21:21:12 35° W 21:25:34 10° NNW
Cosmos 1140 Rocket 4.2 21:18:31 10° SW 21:23:32 52° WNW 21:28:34 10° NNE
Cosmos 2237 Rocket 4.1 21:20:37 10° NW 21:24:34 20° W 21:27:26 14° SW
SeaSat 1 2.9 21:20:19 10° NE 21:24:38 41° E 21:24:38 41° E
Terra 2.8 21:28:59 32° SW 21:30:24 40° W 21:34:54 10° NNW
Cosmos 1606 3.7 21:34:03 36° NE 21:34:03 36° NE 21:36:44 10° NNE
Timation 1 Rocket 4.2 21:33:37 38° SSW 21:36:05 82° ESE 21:42:06 10° NE
Cosmos 2082 3.6 21:39:13 43° SSW 21:41:09 87° SE 21:46:50 10° NNE
Cosmos 2263 Rocket 2.9 21:42:46 36° E 21:42:46 36° E 21:47:25 10° NE
Cosmos 468 Rocket 4.5 21:37:55 10° NW 21:42:50 47° WSW 21:43:44 42° SW
USA 229 DEB 3.8 21:35:53 10° NW 21:43:07 88° SW 21:46:08 41° SE
USA 229 3.8 21:35:59 10° NW 21:43:13 88° SW 21:46:15 41° SE
Cosmos 2227 Rocket 2.7 21:38:45 11° SW 21:44:02 57° NW 21:49:39 10° NNE
Cosmos 1603 3.6 21:43:38 10° NNW 21:49:25 87° ENE 21:50:37 58° SE
USA 281 4.2 21:46:12 22° E 21:49:59 41° NE 21:56:03 10° NNW
Cosmos 1842 Rocket 3.8 21:49:34 59° WSW 21:50:07 65° WNW 21:54:35 10° N
Cosmos 841 Rocket 3.4 21:45:34 10° NNW 21:50:49 79° WSW 21:51:30 66° S
Cosmos 2297 Rocket 3.2 21:46:14 10° WSW 21:51:37 44° NW 21:57:04 10° NNE
Cosmos 2219 4.2 21:48:58 10° WSW 21:54:21 45° NW 21:59:47 10° NNE
Cosmos 1745 Rocket 4.0 21:48:27 10° NNW 21:54:49 82° W 21:56:33 51° S
Cosmos 1814 Rocket 3.9 21:53:20 10° NNW 21:58:42 89° ENE 21:59:24 68° SSE
Cosmos 1709 Rocket 4.0 21:54:21 10° N 22:00:38 71° ENE 22:02:05 53° SE
NOSS 3-1 (A) 3.9 21:53:41 10° NW 22:00:56 80° SW 22:04:04 43° SSE
Cosmos 921 Rocket 3.0 21:57:29 10° NNW 22:01:48 75° W 22:01:48 75° W
Cosmos 1763 Rocket 4.4 21:57:48 10° NW 22:02:22 34° WSW 22:02:58 33° WSW
ATLAS 2AS CENTAUR R/B 4.2 21:56:06 10° W 22:03:27 41° NNW 22:10:29 10° ENE
Meteor 1-25 Rocket 4.2 22:01:04 10° NNW 22:06:48 78° ENE 22:07:50 61° SE
Cosmos 1437 Rocket 3.8 22:08:30 37° NE 22:08:30 37° NE 22:11:04 10° NNE
S3M 4.0 22:08:54 52° S 22:10:38 89° W 22:17:06 10° N
Cosmos 2084 Rocket 3.8 22:10:44 57° NW 22:10:58 59° NW 22:15:04 10° NE
Cosmos 1805 Rocket 3.7 22:07:01 10° NNW 22:11:11 65° W 22:11:11 65° W
Spot 4 3.9 22:11:46 64° SW 22:12:04 65° WSW 22:16:55 10° NNW
CZ-4C R/B 4.1 22:08:10 10° WNW 22:13:49 35° N 22:20:32 10° ENE
Cosmos 883 Rocket 4.5 22:14:35 56° SSE 22:15:46 69° E 22:22:02 10° NNE
SL-16 R/B 3.9 22:14:36 10° NW 22:18:41 21° W 22:19:46 20° WSW
COBE Rocket 4.1 22:19:45 56° E 22:20:03 57° ENE 22:24:51 10° N
Sich 1 3.2 22:17:00 10° NNW 22:20:54 63° WNW 22:20:54 63° WNW
Cosmos 540 Rocket 4.1 22:17:04 10° NW 22:21:53 42° WSW 22:22:04 41° WSW
Cosmos 1174 4.2 22:18:30 10° NW 22:22:44 67° NW 22:22:44 67° NW
Cosmos 1470 Rocket 4.3 22:19:27 10° N 22:23:35 44° ENE 22:23:35 44° ENE
NOSS 3-1 (C) 4.4 22:19:50 10° NW 22:26:52 47° WSW 22:28:42 41° SSW
Meteor 1-20 Rocket 4.2 22:22:39 10° NNW 22:28:29 73° W 22:29:20 62° SSW
Meteor 1-26 Rocket 4.5 22:28:00 53° ESE 22:28:40 56° E 22:34:23 10° NNE
Cosmos 1570 Rocket 4.2 22:23:57 10° NNW 22:29:08 55° WSW 22:29:20 54° WSW
Cosmos 2221 4.0 22:30:07 26° W 22:30:59 28° WNW 22:34:43 10° N
NOSS 2-2 (C) 4.4 22:30:03 10° NW 22:34:51 65° NE 22:37:24 35° ESE
Cosmos 1633 Rocket 3.1 22:30:41 10° N 22:34:39 73° N 22:34:39 73° N
Cosmos 2227 4.1 22:34:45 69° SSE 22:35:19 75° ESE 22:41:05 10° NE
Nimbus 7 Rocket 4.4 22:30:30 10° NNE 22:36:19 59° ESE 22:36:58 56° SE
NOSS 2-2 (E) 4.3 22:32:07 10° NW 22:37:07 75° NE 22:39:19 42° ESE
Cosmos 44 Rocket 3.7 22:36:37 43° WSW 22:38:11 65° NW 22:43:25 10° NE
Aureole 1 Rocket 3.7 22:38:07 51° WSW 22:39:18 66° WNW 22:43:52 10° NNE
Cosmos 1933 Rocket 4.3 22:36:03 10° N 22:40:11 43° ENE 22:40:11 43° ENE
Cosmos 1666 Rocket 3.8 22:37:35 10° NNW 22:41:42 64° WNW 22:41:42 64° WNW
Cosmos 1943 3.8 22:43:40 10° NW 22:48:55 41° WSW 22:48:59 41° WSW
ALOS 2 3.3 22:49:56 46° WNW 22:49:56 46° WNW 22:53:45 10° NNW
Cosmos 1242 Rocket 3.8 22:52:39 39° NNE 22:52:39 39° NNE 22:55:05 10° NNE
Lacrosse 5 rocket 2.5 22:47:05 10° WNW 22:49:47 37° WNW 22:49:47 37° WNW
Cosmos 1782 3.4 22:54:23 55° NNE 22:54:23 55° NNE 22:57:37 10° NNE
Cosmos 1666 3.8 22:51:49 10° N 22:54:48 39° NE 22:54:48 39° NE
Cosmos 1933 4.0 22:57:04 52° NW 22:57:04 52° NW 23:00:36 10° N
ATLAS 5 CENTAUR R/B 3.4 22:51:53 10° NW 22:56:35 38° NNE 23:02:07 10° E
Cosmos 1328 Rocket 3.8 22:57:28 67° NE 22:57:28 67° NE 23:01:28 10° NNE
Thor Agena Rocket 3.4 22:53:21 10° NNE 22:58:28 71° ESE 22:58:37 70° ESE
Cosmos 2154 Rocket 4.4 22:53:01 10° N 22:59:16 55° ENE 23:01:08 42° ESE
SeaSat 1 3.4 22:57:53 10° NNE 23:02:34 44° NW 23:04:24 31° W
COSMOS 2455 3.9 23:01:18 14° WSW 23:06:07 43° NW 23:11:53 10° NE
Cosmos 1812 3.8 23:10:11 41° NE 23:10:11 41° NE 23:13:00 10° NNE
Cosmos 2184 Rocket 3.9 23:04:51 10° N 23:11:16 87° E 23:12:34 59° SSE
NOSS 2-1 (C) 4.4 23:12:00 37° NNW 23:12:00 37° NNW 23:15:23 10° NE
Cosmos 2315 Rocket 4.2 23:10:31 49° SW 23:12:04 64° WNW 23:18:25 10° N
Iridium 4 Rocket 3.6 23:11:57 59° W 23:12:12 60° W 23:17:27 10° N
USA 290 4.2 23:12:54 10° NNW 23:14:55 29° N 23:14:55 29° N
NOSS 2-1 (D) 4.5 23:18:21 34° NNW 23:18:23 34° NNW 23:21:55 10° NE
Meteor 2-12 Rocket 4.4 23:14:26 10° N 23:20:37 76° ENE 23:21:57 56° SE
Meteor 1-14 Rocket 4.4 23:14:51 10° NNW 23:20:46 61° W 23:21:32 56° SW
Cosmos 1151 Rocket 3.5 23:21:43 53° NW 23:21:43 53° NW 23:25:40 10° N
Cosmos 1500 4.4 23:17:58 10° NNW 23:20:36 37° NW 23:20:36 37° NW
Cosmos 773 Rocket 4.4 23:18:35 10° NNW 23:23:50 58° ENE 23:25:10 45° ESE
Cosmos 968 Rocket 3.3 23:24:12 77° SSE 23:24:28 81° ESE 23:29:46 10° NNE
Cosmos 2263 Rocket 2.7 23:24:25 38° W 23:26:09 52° NW 23:31:37 10° NNE
Cosmos 1743 4.3 23:27:53 10° N 23:31:11 27° ENE 23:31:20 27° ENE
USA 281 3.2 23:33:03 54° SSW 23:34:16 63° WSW 23:40:50 10° NNW
NOSS 2-2 (D) 4.2 23:30:14 10° NW 23:35:19 68° SW 23:36:02 62° S
SL-4 R/B 3.4 23:41:44 35° E 23:41:44 35° E 23:44:36 10° E
Cosmos 1844 Rocket 2.7 23:39:31 59° SE 23:39:58 62° ESE 23:45:29 10° NE
Cosmos 1295 Rocket 4.4 23:34:31 10° N 23:40:48 85° E 23:42:21 54° SSE
Cosmos 1486 Rocket 3.9 23:40:25 75° SSW 23:40:55 89° ESE 23:46:18 10° NNE
Cosmos 2074 Rocket 4.1 23:36:08 10° NNW 23:42:16 59° W 23:43:22 52° SW
Cosmos 1869 Rocket 3.6 23:40:04 10° N 23:44:17 76° NE 23:44:17 76° NE
Helios 1A 3.1 23:45:17 76° N 23:45:17 76° N 23:49:14 10° NNW
EO 1 Delta rocket 4.1 23:45:11 53° ESE 23:45:51 59° ENE 23:50:25 10° N
Meteor 1-5 Rocket 4.4 23:41:14 10° NNW 23:46:50 53° W 23:47:20 51° WSW
Cosmos 1544 4.2 23:43:37 10° N 23:46:31 40° NE 23:46:31 40° NE
Meteor 2-6 Rocket 4.0 23:48:13 68° SW 23:48:54 82° WNW 23:54:20 10° NNE
Cosmos 2082 Rocket 3.8 23:44:03 10° NNW 23:49:09 33° NE 23:54:11 10° ESE
Cosmos 1515 Rocket 3.8 23:49:36 60° WNW 23:49:36 60° WNW 23:53:55 10° N
Cosmos 1271 Rocket 3.3 23:53:58 52° ENE 23:53:58 52° ENE 23:57:17 10° NNE
USA 307 4.1 23:55:49 33° E 23:55:49 33° E 23:58:24 10° ENE
SJ 16-02 3.4 23:56:01 17° ESE 23:56:32 17° E 23:59:28 10° NE
